| time (UTC) | temp F | wind direction | speed knots | gust knots | rain 1hr in | rain 24hr in | rain mn in | humidity % | barometer mb |
| 20260506192504 | 58 | 253 | 0.9 | 7.0 | 0.04 | 0.21 | 0.21 | 96 | 990.5 |
| 20260506192004 | 58 | 196 | 2.6 | 6.1 | 0.05 | 0.21 | 0.21 | 96 | 990.6 |
| 20260506191005 | 58 | 236 | 1.7 | 4.3 | 0.06 | 0.21 | 0.21 | 96 | 990.8 |
| 20260506190504 | 58 | 237 | 0.9 | 5.2 | 0.06 | 0.21 | 0.21 | 96 | 990.6 |
| 20260506190005 | 58 | 230 | 1.7 | 7.0 | 0.05 | 0.20 | 0.20 | 96 | 990.6 |
| 20260506185504 | 58 | 228 | 2.6 | 8.7 | 0.06 | 0.20 | 0.20 | 96 | 990.9 |
| 20260506185004 | 58 | 150 | 2.6 | 6.1 | 0.05 | 0.18 | 0.18 | 96 | 991.1 |
| 20260506184504 | 58 | 139 | 1.7 | 7.0 | 0.06 | 0.18 | 0.18 | 96 | 991.2 |
| 20260506184004 | 58 | 158 | 2.6 | 7.0 | 0.07 | 0.18 | 0.18 | 95 | 991.0 |
| 20260506183503 | 58 | 203 | 1.7 | 7.8 | 0.09 | 0.17 | 0.17 | 95 | 990.9 |
| 20260506183005 | 58 | 139 | 1.7 | 5.2 | 0.11 | 0.17 | 0.17 | 95 | 990.8 |
| 20260506182504 | 58 | 250 | 0.9 | 7.0 | 0.13 | 0.17 | 0.17 | 95 | 990.6 |
| 20260506182004 | 58 | 189 | 1.7 | 7.0 | 0.14 | 0.16 | 0.16 | 95 | 990.7 |
| 20260506181504 | 58 | 155 | 1.7 | 5.2 | 0.15 | 0.16 | 0.16 | 95 | 990.6 |
| 20260506180504 | 59 | 154 | 0.9 | 4.3 | 0.15 | 0.15 | 0.15 | 94 | 990.9 |
| 20260506180005 | 59 | 206 | 1.7 | 5.2 | 0.15 | 0.15 | 0.15 | 94 | 991.3 |
| 20260506175004 | 59 | 207 | 1.7 | 2.6 | 0.13 | 0.13 | 0.13 | 94 | 991.3 |
| 20260506174004 | 60 | 189 | 1.7 | 5.2 | 0.11 | 0.11 | 0.11 | 93 | 991.6 |
| 20260506173504 | 60 | 37 | 0.9 | 4.3 | 0.08 | 0.08 | 0.08 | 92 | 991.9 |
| 20260506173004 | 60 | 200 | 0.9 | 2.6 | 0.06 | 0.06 | 0.06 | 91 | 991.8 |
| 20260506172504 | 61 | 206 | 1.7 | 7.0 | 0.04 | 0.04 | 0.04 | 90 | 991.8 |
| 20260506172004 | 62 | 179 | 0.9 | 1.7 | 0.02 | 0.02 | 0.02 | 89 | 991.9 |
| 20260506171504 | 62 | 292 | 0.0 | 2.6 | 0.01 | 0.01 | 0.01 | 87 | 992.2 |
| 20260506171004 | 62 | 191 | 0.9 | 5.2 | 0.01 | 0.01 | 0.01 | 85 | 992.2 |
| 20260506170504 | 63 | 248 | 1.7 | 4.3 | 0.00 | 0.00 | 0.00 | 82 | 992.3 |
| 20260506170004 | 64 | 204 | 1.7 | 6.1 | 0.00 | 0.00 | 0.00 | 80 | 992.3 |
| 20260506164504 | 66 | 264 | 4.3 | 18.2 | 0.00 | 0.00 | 0.00 | 72 | 992.1 |
| 20260506164004 | 67 | 34 | 2.6 | 7.0 | 0.00 | 0.00 | 0.00 | 71 | 991.8 |
| 20260506163004 | 67 | 237 | 3.5 | 7.8 | 0.00 | 0.00 | 0.00 | 70 | 991.8 |
| 20260506162504 | 67 | 221 | 2.6 | 8.7 | 0.00 | 0.00 | 0.00 | 70 | 991.8 |
| 20260506162004 | 67 | 226 | 1.7 | 7.0 | 0.00 | 0.00 | 0.00 | 70 | 991.9 |
| 20260506161504 | 67 | 260 | 1.7 | 8.7 | 0.00 | 0.00 | 0.00 | 71 | 992.1 |
| 20260506161005 | 67 | 146 | 2.6 | 8.7 | 0.00 | 0.00 | 0.00 | 70 | 992.0 |
| 20260506160004 | 66 | 279 | 2.6 | 12.2 | 0.00 | 0.00 | 0.00 | 71 | 992.2 |
| 20260506155504 | 67 | 184 | 2.6 | 8.7 | 0.00 | 0.00 | 0.00 | 70 | 992.3 |
| 20260506155004 | 67 | 284 | 2.6 | 12.2 | 0.00 | 0.00 | 0.00 | 70 | 992.4 |
| 20260506154004 | 67 | 223 | 2.6 | 11.3 | 0.00 | 0.00 | 0.00 | 69 | 992.3 |
| 20260506153504 | 67 | 179 | 4.3 | 11.3 | 0.00 | 0.00 | 0.00 | 68 | 992.3 |
| 20260506153004 | 67 | 270 | 1.7 | 7.0 | 0.00 | 0.00 | 0.00 | 69 | 992.4 |
| 20260506152504 | 68 | 306 | 2.6 | 8.7 | 0.00 | 0.00 | 0.00 | 68 | 992.2 |
| 20260506152004 | 68 | 206 | 1.7 | 6.1 | 0.00 | 0.00 | 0.00 | 68 | 992.3 |
| 20260506151504 | 68 | 199 | 1.7 | 7.0 | 0.00 | 0.00 | 0.00 | 69 | 992.3 |
| 20260506151004 | 68 | 114 | 2.6 | 15.6 | 0.00 | 0.00 | 0.00 | 68 | 992.4 |
| 20260506150505 | 68 | 219 | 0.9 | 8.7 | 0.00 | 0.00 | 0.00 | 69 | 992.4 |
| 20260506150005 | 67 | 240 | 2.6 | 10.4 | 0.00 | 0.00 | 0.00 | 69 | 992.3 |
| 20260506144004 | 67 | 253 | 2.6 | 6.1 | 0.00 | 0.00 | 0.00 | 69 | 992.6 |
| 20260506143504 | 67 | 302 | 1.7 | 7.0 | 0.00 | 0.00 | 0.00 | 70 | 992.6 |
| 20260506143004 | 67 | 249 | 2.6 | 7.8 | 0.00 | 0.00 | 0.00 | 69 | 992.7 |
| 20260506142004 | 67 | 326 | 2.6 | 10.4 | 0.00 | 0.00 | 0.00 | 70 | 992.7 |
| 20260506141004 | 66 | 225 | 2.6 | 8.7 | 0.00 | 0.00 | 0.00 | 72 | 992.7 |
| 20260506140504 | 66 | 184 | 2.6 | 11.3 | 0.00 | 0.00 | 0.00 | 72 | 992.7 |
| 20260506140005 | 66 | 240 | 2.6 | 7.0 | 0.00 | 0.00 | 0.00 | 72 | 992.6 |
| 20260506135504 | 66 | 322 | 1.7 | 6.1 | 0.00 | 0.00 | 0.00 | 73 | 992.6 |
| 20260506135004 | 66 | 12 | 2.6 | 10.4 | 0.00 | 0.00 | 0.00 | 73 | 992.5 |
| 20260506134504 | 66 | 209 | 1.7 | 7.0 | 0.00 | 0.00 | 0.00 | 74 | 992.5 |
| 20260506134004 | 66 | 228 | 3.5 | 7.0 | 0.00 | 0.00 | 0.00 | 73 | 992.3 |
| 20260506133504 | 66 | 251 | 2.6 | 7.0 | 0.00 | 0.00 | 0.00 | 74 | 992.5 |
| 20260506133004 | 66 | 206 | 2.6 | 7.0 | 0.00 | 0.00 | 0.00 | 74 | 992.5 |
| 20260506132504 | 66 | 246 | 1.7 | 5.2 | 0.00 | 0.00 | 0.00 | 74 | 992.6 |
| 20260506132005 | 65 | 197 | 2.6 | 11.3 | 0.00 | 0.00 | 0.00 | 75 | 992.8 |
| 20260506131504 | 65 | 181 | 2.6 | 8.7 | 0.00 | 0.00 | 0.00 | 75 | 992.7 |
| 20260506131004 | 65 | 188 | 1.7 | 7.0 | 0.00 | 0.00 | 0.00 | 77 | 992.6 |
| 20260506130505 | 64 | 212 | 1.7 | 6.1 | 0.00 | 0.00 | 0.00 | 77 | 992.8 |
| 20260506130005 | 64 | 171 | 1.7 | 4.3 | 0.00 | 0.00 | 0.00 | 77 | 993.1 |
| 20260506125004 | 64 | 199 | 1.7 | 7.0 | 0.00 | 0.00 | 0.00 | 78 | 993.1 |
| 20260506124504 | 63 | 241 | 2.6 | 13.0 | 0.00 | 0.00 | 0.00 | 78 | 993.3 |
| 20260506124004 | 63 | 197 | 4.3 | 13.0 | 0.00 | 0.00 | 0.00 | 78 | 993.3 |
| 20260506123504 | 64 | 217 | 2.6 | 12.2 | 0.00 | 0.00 | 0.00 | 78 | 993.2 |
| 20260506123004 | 64 | 211 | 2.6 | 8.7 | 0.00 | 0.00 | 0.00 | 77 | 993.4 |
| 20260506122504 | 65 | 233 | 1.7 | 7.0 | 0.00 | 0.00 | 0.00 | 76 | 993.3 |
| 20260506122004 | 63 | 259 | 2.6 | 7.0 | 0.00 | 0.00 | 0.00 | 79 | 993.0 |
| 20260506121504 | 63 | 166 | 2.6 | 10.4 | 0.00 | 0.00 | 0.00 | 80 | 993.1 |
| 20260506121004 | 63 | 242 | 1.7 | 6.1 | 0.00 | 0.00 | 0.00 | 80 | 993.2 |
| 20260506120005 | 62 | 230 | 2.6 | 7.8 | 0.00 | 0.00 | 0.00 | 81 | 993.1 |
| 20260506115505 | 62 | 244 | 2.6 | 8.7 | 0.00 | 0.00 | 0.00 | 81 | 993.2 |
| 20260506115005 | 62 | 194 | 3.5 | 13.9 | 0.00 | 0.00 | 0.00 | 81 | 993.1 |
| 20260506114504 | 61 | 176 | 1.7 | 7.8 | 0.00 | 0.00 | 0.00 | 82 | 993.1 |
| 20260506114005 | 61 | 201 | 2.6 | 6.1 | 0.00 | 0.00 | 0.00 | 83 | 993.0 |
| 20260506113504 | 61 | 173 | 2.6 | 6.1 | 0.00 | 0.00 | 0.00 | 83 | 992.9 |
| 20260506113004 | 61 | 240 | 0.9 | 6.1 | 0.00 | 0.00 | 0.00 | 83 | 992.9 |
| 20260506112004 | 61 | 262 | 1.7 | 7.0 | 0.00 | 0.00 | 0.00 | 83 | 993.2 |
| 20260506111504 | 60 | 329 | 1.7 | 7.8 | 0.00 | 0.00 | 0.00 | 84 | 993.6 |
| 20260506110504 | 59 | 177 | 2.6 | 7.0 | 0.00 | 0.00 | 0.00 | 86 | 993.4 |
| 20260506110004 | 59 | 191 | 1.7 | 7.0 | 0.00 | 0.00 | 0.00 | 86 | 993.5 |
| 20260506105504 | 59 | 186 | 2.6 | 6.1 | 0.00 | 0.00 | 0.00 | 86 | 993.3 |
| 20260506104504 | 59 | 253 | 0.9 | 5.2 | 0.00 | 0.00 | 0.00 | 85 | 993.2 |
| 20260506104004 | 59 | 173 | 0.9 | 7.0 | 0.00 | 0.00 | 0.00 | 85 | 993.1 |
| 20260506103505 | 59 | 206 | 0.9 | 7.8 | 0.00 | 0.00 | 0.00 | 86 | 993.1 |
| 20260506103004 | 58 | 179 | 2.6 | 7.0 | 0.00 | 0.00 | 0.00 | 87 | 993.1 |
| 20260506102504 | 58 | 160 | 0.9 | 2.6 | 0.00 | 0.00 | 0.00 | 87 | 993.3 |
| 20260506102005 | 58 | 175 | 1.7 | 6.1 | 0.00 | 0.00 | 0.00 | 87 | 993.3 |
| 20260506101504 | 58 | 149 | 0.9 | 4.3 | 0.00 | 0.00 | 0.00 | 87 | 993.2 |
| 20260506100504 | 58 | 174 | 1.7 | 5.2 | 0.00 | 0.00 | 0.00 | 87 | 993.1 |
| 20260506100004 | 58 | 249 | 0.9 | 5.2 | 0.00 | 0.00 | 0.00 | 87 | 993.0 |
| 20260506095505 | 58 | 248 | 0.9 | 5.2 | 0.00 | 0.00 | 0.00 | 87 | 993.1 |
| 20260506095004 | 58 | 153 | 1.7 | 6.1 | 0.00 | 0.00 | 0.00 | 87 | 993.2 |
| 20260506094504 | 58 | 173 | 0.9 | 5.2 | 0.00 | 0.00 | 0.00 | 87 | 993.2 |
| 20260506094004 | 58 | 137 | 2.6 | 8.7 | 0.00 | 0.00 | 0.00 | 87 | 993.1 |
| 20260506093504 | 58 | 226 | 0.9 | 5.2 | 0.00 | 0.00 | 0.00 | 87 | 993.0 |
| 20260506092504 | 58 | 288 | 1.7 | 8.7 | 0.00 | 0.00 | 0.00 | 86 | 993.0 |
| 20260506092004 | 58 | 181 | 1.7 | 7.0 | 0.00 | 0.00 | 0.00 | 87 | 992.9 |
| 20260506091504 | 58 | 182 | 1.7 | 4.3 | 0.00 | 0.00 | 0.00 | 87 | 993.0 |
| 20260506091004 | 58 | 225 | 1.7 | 7.0 | 0.00 | 0.00 | 0.00 | 87 | 993.0 |
| 20260506090505 | 58 | 180 | 0.9 | 4.3 | 0.00 | 0.00 | 0.00 | 86 | 993.0 |
| 20260506090004 | 58 | 190 | 0.9 | 2.6 | 0.00 | 0.00 | 0.00 | 86 | 993.0 |
| 20260506085504 | 58 | 256 | 0.9 | 6.1 | 0.00 | 0.00 | 0.00 | 86 | 993.1 |
| 20260506085004 | 58 | 184 | 1.7 | 6.1 | 0.00 | 0.00 | 0.00 | 86 | 993.2 |
| 20260506084505 | 58 | 202 | 0.9 | 4.3 | 0.00 | 0.00 | 0.00 | 86 | 993.3 |
| 20260506084004 | 58 | 223 | 0.9 | 5.2 | 0.00 | 0.00 | 0.00 | 85 | 993.2 |
| 20260506083504 | 58 | 190 | 0.9 | 5.2 | 0.00 | 0.00 | 0.00 | 85 | 993.3 |
| 20260506083004 | 58 | 187 | 0.9 | 4.3 | 0.00 | 0.00 | 0.00 | 85 | 993.3 |
| 20260506082504 | 59 | 158 | 1.7 | 6.1 | 0.00 | 0.00 | 0.00 | 84 | 993.1 |
| 20260506081504 | 59 | 174 | 0.9 | 6.1 | 0.00 | 0.00 | 0.00 | 84 | 993.1 |
| 20260506081005 | 59 | 249 | 0.9 | 5.2 | 0.00 | 0.00 | 0.00 | 84 | 993.2 |
| 20260506080504 | 59 | 153 | 1.7 | 6.1 | 0.00 | 0.00 | 0.00 | 83 | 993.2 |
| 20260506073504 | 59 | 176 | 3.5 | 7.8 | 0.00 | 0.00 | 0.00 | 81 | 993.1 |
| 20260506073004 | 59 | 263 | 0.9 | 5.2 | 0.00 | 0.00 | 0.00 | 81 | 993.3 |
| 20260506072504 | 60 | 182 | 1.7 | 6.1 | 0.00 | 0.00 | 0.00 | 81 | 993.3 |
| 20260506072003 | 60 | 209 | 2.6 | 8.7 | 0.00 | 0.00 | 0.00 | 81 | 993.5 |
| 20260506071004 | 59 | 189 | 0.9 | 2.6 | 0.00 | 0.00 | 0.00 | 81 | 993.2 |
| 20260506070504 | 59 | 207 | 1.7 | 6.1 | 0.00 | 0.00 | 0.00 | 81 | 993.2 |
| 20260506062504 | 60 | 273 | 0.9 | 4.3 | 0.00 | 0.00 | 0.00 | 79 | 993.1 |
| 20260506062004 | 60 | 116 | 0.9 | 5.2 | 0.00 | 0.00 | 0.00 | 79 | 993.2 |
| 20260506061504 | 60 | 193 | 0.9 | 7.0 | 0.00 | 0.00 | 0.00 | 79 | 993.3 |
| 20260506061004 | 61 | 105 | 2.6 | 7.0 | 0.00 | 0.00 | 0.00 | 78 | 993.1 |
| 20260506060504 | 61 | 174 | 0.9 | 5.2 | 0.00 | 0.00 | 0.00 | 78 | 993.3 |
| 20260506051004 | 62 | 256 | 2.6 | 8.7 | 0.00 | 0.00 | 0.00 | 76 | 993.5 |
| 20260506050504 | 62 | 63 | 2.6 | 10.4 | 0.00 | 0.00 | 0.00 | 75 | 993.5 |
| 20260506045005 | 62 | 169 | 1.7 | 10.4 | 0.00 | 0.00 | 0.00 | 74 | 993.6 |
| 20260506044004 | 63 | 256 | 1.7 | 8.7 | 0.00 | 0.00 | 0.00 | 74 | 993.7 |
| 20260506043504 | 63 | 142 | 1.7 | 7.8 | 0.00 | 0.00 | 0.00 | 73 | 993.6 |
| 20260506043004 | 63 | 187 | 2.6 | 11.3 | 0.00 | 0.00 | 0.00 | 73 | 993.6 |
| 20260506042504 | 63 | 246 | 2.6 | 10.4 | 0.00 | 0.00 | 0.00 | 72 | 993.8 |
| 20260506042004 | 63 | 292 | 2.6 | 10.4 | 0.00 | 0.00 | 0.00 | 72 | 993.5 |
| 20260506041004 | 63 | 218 | 3.5 | 7.8 | 0.00 | 0.00 | 0.00 | 71 | 993.7 |
| 20260506040504 | 63 | 349 | 2.6 | 7.8 | 0.00 | 0.00 | 0.00 | 71 | 993.6 |
| 20260506040004 | 63 | 210 | 2.6 | 8.7 | 0.00 | 0.00 | 0.00 | 70 | 993.8 |
| 20260506035004 | 63 | 192 | 2.6 | 10.4 | 0.00 | 0.00 | 0.00 | 69 | 993.6 |
| 20260506034504 | 64 | 220 | 3.5 | 12.2 | 0.00 | 0.00 | 0.00 | 68 | 993.6 |
| 20260506034004 | 64 | 243 | 3.5 | 13.9 | 0.00 | 0.00 | 0.00 | 68 | 993.7 |
| 20260506033005 | 64 | 221 | 2.6 | 7.0 | 0.00 | 0.00 | 0.00 | 67 | 993.7 |
| 20260506032504 | 64 | 154 | 1.7 | 8.7 | 0.00 | 0.00 | 0.00 | 67 | 993.6 |
| 20260506032004 | 64 | 185 | 3.5 | 8.7 | 0.00 | 0.00 | 0.00 | 67 | 993.8 |
| 20260506031004 | 63 | 20 | 2.6 | 7.8 | 0.00 | 0.00 | 0.00 | 67 | 993.6 |
| 20260506030004 | 64 | 252 | 1.7 | 12.2 | 0.00 | 0.00 | 0.00 | 66 | 993.6 |
| 20260506025504 | 64 | 205 | 1.7 | 8.7 | 0.00 | 0.00 | 0.00 | 66 | 993.7 |
| 20260506025005 | 64 | 202 | 1.7 | 8.7 | 0.00 | 0.00 | 0.00 | 66 | 993.5 |
| 20260506024504 | 64 | 201 | 2.6 | 7.8 | 0.00 | 0.00 | 0.00 | 66 | 993.5 |
| 20260506023504 | 63 | 221 | 2.6 | 8.7 | 0.00 | 0.00 | 0.00 | 67 | 993.4 |
| 20260506023004 | 63 | 241 | 1.7 | 11.3 | 0.00 | 0.00 | 0.00 | 67 | 993.6 |
| 20260506022504 | 63 | 231 | 1.7 | 7.8 | 0.00 | 0.00 | 0.00 | 67 | 993.7 |
| 20260506021503 | 63 | 189 | 1.7 | 11.3 | 0.00 | 0.00 | 0.00 | 67 | 993.5 |
| 20260506021004 | 63 | 81 | 1.7 | 6.1 | 0.00 | 0.00 | 0.00 | 67 | 993.5 |
| 20260506020504 | 63 | 24 | 2.6 | 8.7 | 0.00 | 0.00 | 0.00 | 67 | 993.7 |
| 20260506020004 | 63 | 251 | 1.7 | 5.2 | 0.00 | 0.00 | 0.00 | 66 | 993.5 |
| 20260506015503 | 63 | 208 | 1.7 | 7.0 | 0.00 | 0.00 | 0.00 | 66 | 993.4 |
| 20260506015004 | 63 | 193 | 1.7 | 7.0 | 0.00 | 0.00 | 0.00 | 66 | 993.4 |
| 20260506014504 | 63 | 186 | 2.6 | 11.3 | 0.00 | 0.00 | 0.00 | 65 | 993.5 |
| 20260506014003 | 63 | 195 | 1.7 | 11.3 | 0.00 | 0.00 | 0.00 | 65 | 993.5 |
| 20260506013504 | 63 | 327 | 2.6 | 5.2 | 0.00 | 0.00 | 0.00 | 65 | 993.5 |
| 20260506013004 | 63 | 195 | 2.6 | 6.1 | 0.00 | 0.00 | 0.00 | 65 | 993.5 |
| 20260506012004 | 64 | 191 | 1.7 | 6.1 | 0.00 | 0.00 | 0.00 | 64 | 993.3 |
| 20260506011504 | 64 | 244 | 0.9 | 7.0 | 0.00 | 0.00 | 0.00 | 64 | 993.2 |
| 20260506011004 | 64 | 181 | 2.6 | 7.0 | 0.00 | 0.00 | 0.00 | 63 | 993.0 |
| 20260506010504 | 64 | 286 | 2.6 | 7.0 | 0.00 | 0.00 | 0.00 | 63 | 993.0 |
| 20260506010004 | 64 | 189 | 2.6 | 7.8 | 0.00 | 0.00 | 0.00 | 63 | 993.1 |
| 20260506005504 | 64 | 232 | 1.7 | 4.3 | 0.00 | 0.00 | 0.00 | 62 | 992.9 |
| 20260506005004 | 65 | 200 | 1.7 | 7.8 | 0.00 | 0.00 | 0.00 | 61 | 992.8 |
| 20260506004505 | 65 | 244 | 2.6 | 7.0 | 0.00 | 0.00 | 0.00 | 61 | 992.8 |
| 20260506004004 | 65 | 307 | 1.7 | 7.0 | 0.00 | 0.00 | 0.00 | 61 | 992.8 |
| 20260506003504 | 65 | 193 | 1.7 | 5.2 | 0.00 | 0.00 | 0.00 | 61 | 992.8 |
| 20260506003004 | 65 | 195 | 3.5 | 11.3 | 0.00 | 0.00 | 0.00 | 61 | 992.7 |
| 20260506002504 | 65 | 127 | 1.7 | 7.0 | 0.00 | 0.00 | 0.00 | 61 | 992.5 |
| 20260506002003 | 65 | 275 | 3.5 | 10.4 | 0.00 | 0.00 | 0.00 | 61 | 992.7 |
| 20260506001504 | 65 | 149 | 2.6 | 13.9 | 0.00 | 0.00 | 0.00 | 61 | 992.4 |
| 20260506001004 | 66 | 298 | 1.7 | 7.0 | 0.00 | 0.00 | 0.00 | 61 | 992.3 |
| 20260506000505 | 66 | 231 | 2.6 | 7.0 | 0.00 | 0.00 | 0.00 | 60 | 992.2 |
| 20260506000004 | 66 | 223 | 3.5 | 7.0 | 0.00 | 0.00 | 0.00 | 60 | 992.1 |
| 20260505235004 | 67 | 192 | 2.6 | 8.7 | 0.00 | 0.00 | 0.00 | 60 | 992.1 |
| 20260505234504 | 67 | 189 | 2.6 | 10.4 | 0.00 | 0.00 | 0.00 | 59 | 991.9 |
| 20260505234005 | 67 | 182 | 4.3 | 11.3 | 0.00 | 0.00 | 0.00 | 59 | 992.0 |
| 20260505233504 | 67 | 200 | 5.2 | 10.4 | 0.00 | 0.00 | 0.00 | 58 | 991.8 |
| 20260505233004 | 67 | 234 | 4.3 | 10.4 | 0.00 | 0.00 | 0.00 | 58 | 991.8 |
| 20260505232504 | 68 | 334 | 2.6 | 10.4 | 0.00 | 0.00 | 0.00 | 58 | 991.5 |
| 20260505232004 | 68 | 313 | 2.6 | 11.3 | 0.00 | 0.00 | 0.00 | 58 | 991.5 |
| 20260505231503 | 68 | 251 | 2.6 | 7.0 | 0.00 | 0.00 | 0.00 | 57 | 991.3 |
| 20260505230504 | 69 | 183 | 2.6 | 13.9 | 0.00 | 0.00 | 0.00 | 56 | 991.3 |
| 20260505230004 | 69 | 253 | 2.6 | 7.0 | 0.00 | 0.00 | 0.00 | 56 | 991.3 |
| 20260505225504 | 69 | 191 | 4.3 | 12.2 | 0.00 | 0.00 | 0.00 | 55 | 991.3 |
| 20260505225003 | 69 | 193 | 0.9 | 11.3 | 0.00 | 0.00 | 0.00 | 56 | 991.3 |
| 20260505224504 | 70 | 203 | 2.6 | 7.8 | 0.00 | 0.00 | 0.00 | 55 | 991.2 |
| 20260505224004 | 70 | 175 | 3.5 | 8.7 | 0.00 | 0.00 | 0.00 | 55 | 991.1 |
| 20260505223504 | 70 | 140 | 2.6 | 7.8 | 0.00 | 0.00 | 0.00 | 54 | 991.0 |
| 20260505222004 | 71 | 182 | 3.5 | 11.3 | 0.00 | 0.00 | 0.00 | 52 | 990.7 |
| 20260505221503 | 72 | 183 | 2.6 | 13.0 | 0.00 | 0.00 | 0.00 | 52 | 991.0 |
| 20260505221004 | 72 | 224 | 1.7 | 10.4 | 0.00 | 0.00 | 0.00 | 52 | 990.8 |
| 20260505220504 | 72 | 190 | 4.3 | 10.4 | 0.00 | 0.00 | 0.00 | 52 | 990.9 |
| 20260505220004 | 72 | 188 | 4.3 | 11.3 | 0.00 | 0.00 | 0.00 | 51 | 991.2 |
| 20260505215504 | 73 | 185 | 1.7 | 15.6 | 0.00 | 0.00 | 0.00 | 51 | 991.0 |
| 20260505215004 | 73 | 167 | 5.2 | 13.9 | 0.00 | 0.00 | 0.00 | 51 | 991.1 |
| 20260505214504 | 73 | 180 | 0.9 | 7.8 | 0.00 | 0.00 | 0.00 | 51 | 991.0 |
| 20260505214004 | 74 | 168 | 1.7 | 10.4 | 0.00 | 0.00 | 0.00 | 50 | 991.0 |
| 20260505213504 | 74 | 243 | 2.6 | 7.0 | 0.00 | 0.00 | 0.00 | 49 | 990.9 |
| 20260505213004 | 74 | 314 | 3.5 | 13.0 | 0.00 | 0.00 | 0.00 | 50 | 990.8 |
| 20260505212504 | 74 | 155 | 1.7 | 6.1 | 0.00 | 0.00 | 0.00 | 50 | 991.0 |
| 20260505212004 | 74 | 184 | 2.6 | 7.8 | 0.00 | 0.00 | 0.00 | 49 | 990.9 |
| 20260505211504 | 75 | 248 | 3.5 | 10.4 | 0.00 | 0.00 | 0.00 | 48 | 991.2 |
| 20260505211004 | 75 | 193 | 1.7 | 7.8 | 0.00 | 0.00 | 0.00 | 48 | 990.9 |
| 20260505205504 | 75 | 185 | 2.6 | 13.0 | 0.00 | 0.00 | 0.00 | 48 | 990.7 |
| 20260505205004 | 76 | 182 | 4.3 | 13.9 | 0.00 | 0.00 | 0.00 | 48 | 990.8 |
| 20260505204004 | 76 | 161 | 4.3 | 13.9 | 0.00 | 0.00 | 0.00 | 46 | 990.8 |
| 20260505203504 | 77 | 176 | 5.2 | 14.8 | 0.00 | 0.00 | 0.00 | 45 | 990.8 |
| 20260505203004 | 77 | 175 | 2.6 | 13.0 | 0.00 | 0.00 | 0.00 | 45 | 990.7 |
| 20260505202504 | 77 | 231 | 5.2 | 11.3 | 0.00 | 0.00 | 0.00 | 45 | 990.7 |
| 20260505202004 | 78 | 226 | 4.3 | 10.4 | 0.00 | 0.00 | 0.00 | 45 | 990.7 |
| 20260505201504 | 78 | 161 | 3.5 | 11.3 | 0.00 | 0.00 | 0.00 | 44 | 990.8 |
| 20260505201004 | 78 | 191 | 4.3 | 8.7 | 0.00 | 0.00 | 0.00 | 45 | 990.9 |
| 20260505200504 | 78 | 48 | 2.6 | 8.7 | 0.00 | 0.00 | 0.00 | 45 | 990.9 |
| 20260505200006 | 78 | 240 | 5.2 | 14.8 | 0.00 | 0.00 | 0.00 | 43 | 991.0 |
| 20260505195003 | 80 | 262 | 1.7 | 8.7 | 0.00 | 0.00 | 0.00 | 44 | 990.8 |
| 20260505194504 | 79 | 229 | 2.6 | 10.4 | 0.00 | 0.00 | 0.00 | 44 | 990.9 |
| 20260505194003 | 80 | 254 | 2.6 | 12.2 | 0.00 | 0.00 | 0.00 | 44 | 991.0 |
| 20260505193504 | 80 | 171 | 4.3 | 12.2 | 0.00 | 0.00 | 0.00 | 43 | 990.9 |
| 20260505193004 | 80 | 193 | 4.3 | 12.2 | 0.00 | 0.00 | 0.00 | 42 | 990.9 |